Overview Statistics Trail Chart Weather Telemetry Raw packets
 

This is the latest recevied weather packets stored in our database for station/object DK6GC-10. If no packets are shown the sender has not sent any weather packets the latest 10 day(s).

<< 17 18 19 20 21 22 23 >>
Time Temp. Humidity Pressure Rain* Wind** Luminosity Snow
1788286519 18.33° C 77% 1022.2 hPa - - - -
1788285624 18.89° C 73% 1022.1 hPa - - - -
1788284723 20° C 70% 1022 hPa - - - -
1788283823 20.56° C 71% 1022 hPa - - - -
1788282923 21.11° C 67% 1022 hPa - - - -
1788282023 21.67° C 63% 1022 hPa - - - -
1788281123 22.22° C 58% 1022.1 hPa - - - -
1788280222 22.78° C 57% 1022.1 hPa - - - -
1788279322 23.33° C 53% 1022.2 hPa - - - -
1788278422 23.33° C 58% 1022.3 hPa - - - -
1788277522 23.89° C 53% 1022.4 hPa - - - -
1788276622 23.89° C 49% 1022.4 hPa - - - -
1788275722 25° C 47% 1022.3 hPa - - - -
1788274821 25° C 46% 1022.3 hPa - - - -
1788273921 24.44° C 47% 1022.4 hPa - - - -
1788273021 25.56° C 46% 1022.5 hPa - - - -
1788272121 26.11° C 46% 1022.4 hPa - - - -
1788271221 26.11° C 46% 1022.7 hPa - - - -
1788270321 25.56° C 43% 1022.7 hPa - - - -
1788269420 25.56° C 42% 1022.8 hPa - - - -
1788268520 26.11° C 46% 1023 hPa - - - -
1788267620 24.44° C 48% 1023.2 hPa - - - -
1788266720 23.89° C 51% 1023.3 hPa - - - -
1788265820 24.44° C 48% 1023.3 hPa - - - -
1788264919 24.44° C 49% 1023.3 hPa - - - -

* Rain since midnight (hover to see other rain measurements)
** Current wind speed in m/s (hover to see current wind gust speed)